Location: Lewisville
(33.0462°N, 96.9942°W)
Time: 01:07:47
(UTC-05:00)

Hubble Space Telescope - Pass Details

Date: 15 August 2020
Orbit: 536 x 540 km, 28.5° (Epoch: 21 October)

Event Time Altitude Azimuth Distance (km) Brightness Sun altitude
Exits shadow 06:18:57 - 258° (WSW) 1,874 2.9 -7.2°
Reaches altitude 10° 06:19:13 10° 257° (WSW) 1,780 2.8 -7.2°
Maximum altitude 06:23:01 36° 190° (S) 849 1.5 -6.5°
Drops below altitude 10° 06:26:49 10° 122° (ESE) 1,781 4.0 -5.7°
Sets 06:29:11 0° 114° (ESE) 2,671 5.1 -5.2°
